Effective Sunday, March 17, 2024, the National Weather Service National Data Buoy Center will discontinue its Dial-A-Buoy Interactive Voice Response system. For more information, see Service Change Notice 24-06 (PDF).

Station SBIO1 - South Bass Island, OH Image indicating link to RSS feed of recent meteorological observations for station SBIO1


Conditions at SBIO1 as of
(4:00 pm EST)
2100 GMT on 03/03/2024:
     

Click on the graph icon in the table below to see a time series plot of the last five days of that observation.

5-day plot - Wind Direction Wind Direction (WDIR):ENE ( 60 deg true )
5-day plot - Wind Speed Wind Speed (WSPD): 14 kts
5-day plot - Wind Gust Wind Gust (GST): 17 kts
5-day plot - Atmospheric Pressure Atmospheric Pressure (PRES):30.05 in
5-day plot - Pressure Tendency Pressure Tendency (PTDY):-0.06 in ( Falling )
5-day plot - Air Temperature Air Temperature (ATMP): 43.9 °F
5-day plot - Wind Chill Wind Chill (CHILL): 36.5 °F
5-day plot - Wind Speed at 10 Meters Wind Speed at 10 meters (WSPD10M): 14 kts
5-day plot - Wind Speed at 20 Meters Wind Speed at 20 meters (WSPD20M): 14 kts
5-day plot -  Wind Speed, Wind Gust and Atmospheric Pressure Combined plot of Wind Speed, Gust, and Air Pressure
Continuous Winds
TIME
(EST)
5-day plot - Wind Direction WDIR 5-day plot - Wind Speed WSPD
4:00 pmENE ( 65 deg ) 14 kts
3:50 pmENE ( 68 deg ) 15 kts
3:40 pmENE ( 71 deg ) 17 kts
3:30 pmENE ( 69 deg ) 15 kts
3:20 pmENE ( 72 deg ) 15 kts
3:10 pmENE ( 74 deg ) 16 kts
 
Peak gust during the measurement hour
TIME
(EST)
5-day plot - Gust Direction GDR 5-day plot - Gust Speed GST
3:42 pmE ( 80 deg ) 22 kts
Previous observations
TIME
(EST)
5-day plot - Wind Direction
WDIR
 
5-day plot - Wind Speed
WSPD
kts
5-day plot - Wind Gust
GST
kts
5-day plot - Wave Height
WVHT
ft
5-day plot - Dominant Wave Period
DPD
sec
5-day plot - Average Wave Period
APD
sec
5-day plot - Mean Wave Direction
MWD
 
5-day plot - Atmospheric Pressure
PRES
in
5-day plot - Pressure Tendency
PTDY
in
5-day plot - Air Temperature
ATMP
°F
5-day plot - Water Temperature
WTMP
°F
5-day plot - Dew Point
DEWP
°F
5-day plot - Salinity
SAL
psu
5-day plot - Visibility
VIS
nmi
5-day plot - Tide (above MLLW)
TIDE
ft
2024-03-03 03:00 pmENE 14 18----30.06-0.08 49.3-----
2024-03-03 02:00 pm E 12 14----30.08-0.09 49.6-----
2024-03-03 01:00 pmESE 16 17----30.11-0.06 50.0-----
2024-03-03 12:00 pmESE 11 13----30.14-0.03 48.9-----
2024-03-03 11:00 amESE 12 13----30.17+0.00 48.6-----
2024-03-03 10:00 amESE 9 9----30.17+0.00 46.8-----
2024-03-03 09:00 amESE 10 11----30.18+0.00 46.0-----
2024-03-03 08:00 amESE 6 7----30.17+0.00 47.7-----
2024-03-03 07:00 am SE 6 7----30.16+0.01 46.4-----
2024-03-03 06:00 am SE 7 8----30.17+0.02 45.1-----
2024-03-03 05:00 amSSE 5 7----30.17+0.02 45.7-----
2024-03-03 04:00 am SE 8 8----30.16+0.00 45.7-----
2024-03-03 03:00 amESE 9 9----30.15+0.00 44.4-----
2024-03-03 02:00 amESE 9 10----30.15+0.00 45.3-----
2024-03-03 01:00 amESE 9 11----30.15+0.01 42.4-----
2024-03-03 12:00 am SE 8 9----30.15+0.00 42.4-----
2024-03-02 11:00 pmESE 8 9----30.15+0.00 42.6-----
2024-03-02 10:00 pm E 8 8----30.14+0.00 41.0-----
2024-03-02 09:00 pm E 7 8----30.15+0.02 40.3-----
2024-03-02 08:00 pmESE 7 8----30.14+0.02 40.6-----
2024-03-02 07:00 pmESE 9 9----30.14+0.02 39.9-----
2024-03-02 06:00 pmESE 8 9----30.12+0.00 41.4-----
2024-03-02 05:00 pm E 4 4----30.12+0.00 44.1-----
2024-03-02 04:00 pmSSE 2 2----30.12-0.02 44.8-----